When you browse on this site, cookies collect data to enhance your experience and personalize the content and advertising you see.
Visit our Privacy Policy to learn more. By continuing to use the site, you agree to this use of cookies and data.

Stündliche Wetter Zorya

Heute, 13 Juli, Montag

Zeit Temperatur Niederschläge Wind Luftdruck Luftfeuchtigkeit
00:00 +24°C° 0 mm 3 m/S 752 mmHg 54%
01:00 +24°C° 0 mm 3 m/S 752 mmHg 55%
02:00 +22°C° 0 mm 3 m/S 752 mmHg 59%
03:00 +22°C° 0 mm 3 m/S 752 mmHg 60%
04:00 +22°C° 0 mm 3 m/S 752 mmHg 61%
05:00 +22°C° 0 mm 3 m/S 751 mmHg 62%
06:00 +25°C° 0 mm 3 m/S 752 mmHg 57%
07:00 +27°C° 0 mm 4 m/S 752 mmHg 52%
08:00 +30°C° 0 mm 4 m/S 752 mmHg 48%
09:00 +32°C° 0 mm 5 m/S 752 mmHg 43%
10:00 +33°C° 0 mm 5 m/S 752 mmHg 38%
11:00 +34°C° 0 mm 5 m/S 751 mmHg 33%
12:00 +34°C° 0 mm 5 m/S 752 mmHg 33%
13:00 +34°C° 0 mm 5 m/S 752 mmHg 34%
14:00 +34°C° 0 mm 5 m/S 752 mmHg 34%
15:00 +33°C° 0 mm 5 m/S 751 mmHg 35%
16:00 +33°C° 0 mm 6 m/S 751 mmHg 37%
17:00 +32°C° 0 mm 6 m/S 751 mmHg 38%
18:00 +29°C° 0.1 mm 6 m/S 751 mmHg 47%
19:00 +27°C° 0.1 mm 6 m/S 751 mmHg 55%
20:00 +24°C° 0.1 mm 6 m/S 752 mmHg 64%
21:00 +23°C° 0.3 mm 6 m/S 752 mmHg 68%
22:00 +21°C° 0.3 mm 6 m/S 752 mmHg 73%
23:00 +20°C° 0.3 mm 5 m/S 753 mmHg 78%

Morgen, 14 Juli, Dienstag

Zeit Temperatur Niederschläge Wind Luftdruck Luftfeuchtigkeit
00:00 +19°C° 0 mm 5 m/S 753 mmHg 78%
01:00 +19°C° 0 mm 5 m/S 753 mmHg 78%
02:00 +17°C° 0 mm 5 m/S 753 mmHg 79%
03:00 +17°C° 0 mm 5 m/S 753 mmHg 77%
04:00 +17°C° 0 mm 5 m/S 754 mmHg 75%
05:00 +17°C° 0 mm 5 m/S 754 mmHg 73%
06:00 +19°C° 0 mm 5 m/S 754 mmHg 69%
07:00 +19°C° 0 mm 6 m/S 754 mmHg 65%
08:00 +20°C° 0 mm 6 m/S 755 mmHg 62%
09:00 +22°C° 0 mm 6 m/S 755 mmHg 54%
10:00 +23°C° 0 mm 7 m/S 755 mmHg 47%
11:00 +26°C° 0 mm 7 m/S 755 mmHg 40%
12:00 +26°C° 0 mm 7 m/S 755 mmHg 38%
13:00 +27°C° 0 mm 7 m/S 756 mmHg 37%
14:00 +27°C° 0 mm 7 m/S 756 mmHg 35%
15:00 +27°C° 0 mm 7 m/S 756 mmHg 35%
16:00 +27°C° 0 mm 7 m/S 756 mmHg 35%
17:00 +26°C° 0 mm 6 m/S 756 mmHg 35%
18:00 +24°C° 0 mm 6 m/S 756 mmHg 40%
19:00 +22°C° 0 mm 5 m/S 757 mmHg 44%
20:00 +21°C° 0 mm 4 m/S 757 mmHg 48%
21:00 +20°C° 0 mm 4 m/S 757 mmHg 53%
22:00 +19°C° 0 mm 3 m/S 758 mmHg 57%
23:00 +18°C° 0 mm 3 m/S 758 mmHg 61%

übermorgen, 15 Juli, Mittwoch

Zeit Temperatur Niederschläge Wind Luftdruck Luftfeuchtigkeit
00:00 +18°C° 0 mm 3 m/S 758 mmHg 63%
01:00 +17°C° 0 mm 2 m/S 758 mmHg 64%
02:00 +17°C° 0 mm 2 m/S 758 mmHg 66%
03:00 +17°C° 0 mm 2 m/S 758 mmHg 66%
04:00 +17°C° 0 mm 2 m/S 758 mmHg 66%
05:00 +18°C° 0 mm 1 m/S 759 mmHg 67%
06:00 +20°C° 0 mm 1 m/S 759 mmHg 59%
07:00 +23°C° 0 mm 1 m/S 759 mmHg 51%
08:00 +23°C° 0 mm 0 m/S 760 mmHg 43%
09:00 +26°C° 0 mm 1 m/S 759 mmHg 38%
10:00 +28°C° 0 mm 1 m/S 759 mmHg 33%
11:00 +29°C° 0 mm 1 m/S 759 mmHg 28%
12:00 +29°C° 0 mm 2 m/S 759 mmHg 29%
13:00 +30°C° 0 mm 3 m/S 759 mmHg 29%
14:00 +30°C° 0 mm 4 m/S 759 mmHg 29%
15:00 +29°C° 0 mm 4 m/S 759 mmHg 33%
16:00 +28°C° 0 mm 4 m/S 759 mmHg 36%
17:00 +27°C° 0 mm 4 m/S 759 mmHg 39%
18:00 +26°C° 0 mm 3 m/S 759 mmHg 45%
19:00 +24°C° 0 mm 3 m/S 759 mmHg 51%
20:00 +21°C° 0 mm 2 m/S 759 mmHg 57%
21:00 +20°C° 0 mm 2 m/S 759 mmHg 60%
22:00 +19°C° 0 mm 2 m/S 759 mmHg 64%
23:00 +18°C° 0 mm 2 m/S 759 mmHg 67%

16 Juli, Donnerstag

Zeit Temperatur Niederschläge Wind Luftdruck Luftfeuchtigkeit
00:00 +18°C° 0 mm 2 m/S 759 mmHg 68%
01:00 +18°C° 0 mm 2 m/S 759 mmHg 69%
02:00 +17°C° 0 mm 2 m/S 759 mmHg 70%
03:00 +17°C° 0 mm 2 m/S 758 mmHg 70%
04:00 +19°C° 0 mm 1 m/S 758 mmHg 70%
05:00 +19°C° 0 mm 1 m/S 758 mmHg 69%
06:00 +21°C° 0 mm 1 m/S 758 mmHg 60%
07:00 +24°C° 0 mm 1 m/S 758 mmHg 51%
08:00 +27°C° 0 mm 1 m/S 758 mmHg 42%
09:00 +28°C° 0 mm 2 m/S 758 mmHg 38%
10:00 +29°C° 0 mm 2 m/S 758 mmHg 33%
11:00 +30°C° 0 mm 3 m/S 758 mmHg 28%
12:00 +30°C° 0 mm 4 m/S 757 mmHg 28%
13:00 +32°C° 0 mm 4 m/S 757 mmHg 28%
14:00 +32°C° 0 mm 5 m/S 757 mmHg 27%
15:00 +32°C° 0 mm 5 m/S 756 mmHg 28%
16:00 +30°C° 0 mm 5 m/S 756 mmHg 30%
17:00 +29°C° 0 mm 4 m/S 756 mmHg 31%
18:00 +27°C° 0 mm 4 m/S 756 mmHg 38%
19:00 +25°C° 0 mm 3 m/S 756 mmHg 45%
20:00 +23°C° 0 mm 2 m/S 756 mmHg 52%
21:00 +21°C° 0 mm 2 m/S 756 mmHg 55%
22:00 +22°C° 0 mm 1 m/S 755 mmHg 59%
23:00 +21°C° 0 mm 1 m/S 755 mmHg 62%

17 Juli, Freitag

Zeit Temperatur Niederschläge Wind Luftdruck Luftfeuchtigkeit
00:00 +21°C° 0 mm 1 m/S 755 mmHg 63%
01:00 +20°C° 0 mm 1 m/S 755 mmHg 65%
02:00 +20°C° 0 mm 1 m/S 755 mmHg 66%
03:00 +21°C° 0 mm 1 m/S 755 mmHg 66%
04:00 +20°C° 0 mm 2 m/S 755 mmHg 67%
05:00 +21°C° 0 mm 2 m/S 754 mmHg 67%
06:00 +24°C° 0.1 mm 3 m/S 755 mmHg 61%
07:00 +26°C° 0.1 mm 4 m/S 755 mmHg 54%
08:00 +28°C° 0.1 mm 5 m/S 755 mmHg 47%
09:00 +29°C° 0 mm 5 m/S 755 mmHg 43%
10:00 +30°C° 0 mm 5 m/S 755 mmHg 39%
11:00 +32°C° 0 mm 5 m/S 755 mmHg 34%
12:00 +32°C° 0 mm 6 m/S 755 mmHg 34%
13:00 +32°C° 0 mm 6 m/S 755 mmHg 34%
14:00 +32°C° 0 mm 6 m/S 755 mmHg 33%
15:00 +32°C° 0 mm 6 m/S 755 mmHg 34%
16:00 +30°C° 0 mm 5 m/S 755 mmHg 35%
17:00 +29°C° 0 mm 5 m/S 755 mmHg 36%
18:00 +27°C° 0 mm 4 m/S 755 mmHg 43%
19:00 +25°C° 0 mm 3 m/S 755 mmHg 50%
20:00 +23°C° 0 mm 2 m/S 755 mmHg 56%
21:00 +23°C° 0 mm 2 m/S 755 mmHg 59%
22:00 +21°C° 0 mm 2 m/S 755 mmHg 61%
23:00 +22°C° 0 mm 1 m/S 755 mmHg 63%

18 Juli, Samstag

Zeit Temperatur Niederschläge Wind Luftdruck Luftfeuchtigkeit
00:00 +21°C° 0 mm 2 m/S 755 mmHg 64%
01:00 +21°C° 0 mm 2 m/S 755 mmHg 64%
02:00 +22°C° 0 mm 3 m/S 755 mmHg 65%
03:00 +22°C° 0 mm 3 m/S 755 mmHg 66%
04:00 +22°C° 0 mm 3 m/S 755 mmHg 68%
05:00 +22°C° 0 mm 3 m/S 755 mmHg 70%
06:00 +26°C° 0 mm 4 m/S 755 mmHg 61%
07:00 +28°C° 0 mm 5 m/S 755 mmHg 52%
08:00 +30°C° 0 mm 6 m/S 755 mmHg 42%
09:00 +32°C° 0 mm 6 m/S 755 mmHg 39%
10:00 +33°C° 0 mm 7 m/S 755 mmHg 36%
11:00 +33°C° 0 mm 8 m/S 755 mmHg 33%
12:00 +33°C° 0 mm 8 m/S 755 mmHg 33%
13:00 +33°C° 0 mm 8 m/S 755 mmHg 33%
14:00 +33°C° 0 mm 8 m/S 755 mmHg 33%
15:00 +33°C° 0 mm 7 m/S 754 mmHg 34%
16:00 +32°C° 0 mm 7 m/S 754 mmHg 35%
17:00 +32°C° 0 mm 6 m/S 754 mmHg 36%
18:00 +29°C° 0 mm 5 m/S 754 mmHg 43%
19:00 +27°C° 0 mm 4 m/S 754 mmHg 51%
20:00 +25°C° 0 mm 2 m/S 754 mmHg 58%
21:00 +25°C° 0 mm 2 m/S 754 mmHg 61%
22:00 +24°C° 0 mm 2 m/S 754 mmHg 64%
23:00 +24°C° 0 mm 2 m/S 754 mmHg 67%
Mehr zeigen